Theta_e
294 294 294 294 294 294 294 294 294 294 294 295 296 296 297 297 297 296 292 302 293 289 291 292 292 290 291 289 283 290 287 290 293 286 289 288 287 289 288 291 291 293 293 292 291 290 290 303 302 298 304 308 310 310
294 293 293 293 293 293 293 294 294 294 294 295 295 296 297 297 297 297 291 300 303 292 289 296 297 299 297 296 290 288 289 287 296 292 291 293 290 292 290 285 294 290 295 294 295 295 301 303 304 306 307 309 310 310
293 293 293 293 293 293 293 293 294 294 294 294 295 296 296 296 297 296 294 299 297 290 289 289 290 297 301 301 298 286 291 294 292 296 297 296 291 295 290 291 293 296 301 298 296 296 299 301 304 306 309 308 309 310
293 293 293 292 292 292 293 293 293 293 293 294 295 296 296 296 297 297 293 299 298 291 285 289 299 295 301 299 297 296 292 293 290 289 293 294 293 298 294 295 296 298 300 299 295 296 298 298 303 305 305 304 304 305
292 292 292 292 292 292 292 293 293 293 293 295 295 295 295 295 296 297 295 298 300 291 285 289 294 296 296 295 294 295 293 292 286 287 288 292 294 295 298 299 296 299 298 296 295 300 303 298 299 301 298 297 298 298
291 291 291 291 291 292 293 293 292 293 294 295 295 295 295 296 297 293 288 299 300 296 286 285 295 292 293 293 292 291 291 291 288 286 287 292 294 294 293 293 293 295 299 304 298 301 300 297 298 298 296 296 297 298
291 291 291 291 292 292 292 292 292 293 295 295 295 295 295 296 296 289 290 293 298 295 287 285 287 291 292 292 292 291 291 288 289 286 286 289 292 297 291 290 291 295 298 299 300 298 295 297 294 296 298 298 298 298
291 291 291 292 292 292 292 292 293 294 294 294 295 295 296 298 298 293 297 298 298 291 291 285 285 287 291 289 289 292 289 290 289 287 287 285 288 290 285 288 291 293 293 295 297 300 298 297 297 296 296 296 295 295
291 291 292 292 292 292 292 292 293 293 294 294 295 296 296 294 289 292 298 299 298 292 287 286 282 283 290 288 290 291 292 284 290 286 286 286 284 281 286 288 289 292 291 292 294 296 296 294 293 295 295 295 293 293
291 291 292 292 292 291 292 292 293 294 294 294 295 290 285 291 296 298 293 288 287 288 291 285 289 286 290 289 286 286 289 286 284 286 289 284 283 286 286 287 290 292 293 294 292 292 294 294 294 294 294 295 295 294
291 291 291 291 291 292 292 293 294 294 294 293 288 287 294 298 291 287 285 286 287 285 289 288 288 287 292 286 286 288 285 285 281 284 286 283 282 287 291 291 292 292 294 294 295 295 296 295 294 294 294 294 294 294
291 291 291 291 291 292 293 293 294 293 291 290 290 293 293 287 286 283 284 286 285 284 287 286 288 292 291 293 287 286 283 285 279 287 284 280 285 289 291 292 294 294 294 294 295 295 296 295 295 294 294 294 294 294
291 291 290 291 292 292 293 293 293 293 293 292 289 285 285 285 280 280 278 281 283 285 287 288 286 291 290 291 287 285 281 280 287 283 281 285 288 290 292 293 294 295 295 294 294 295 295 294 294 294 294 295 295 294
291 290 291 291 292 293 293 294 293 292 290 284 285 281 282 280 282 283 285 286 286 288 289 290 288 290 289 286 286 280 283 284 279 277 279 287 289 291 293 294 294 293 294 295 295 295 295 294 295 296 296 296 294 294
290 290 291 291 292 292 293 294 293 292 288 284 285 280 282 287 287 287 288 288 290 292 290 289 289 290 286 283 285 282 278 276 279 280 286 289 291 292 292 293 293 293 294 293 294 294 293 293 294 295 296 297 297 295
290 291 291 291 292 292 293 294 292 290 287 285 285 283 286 284 285 286 287 289 291 291 291 291 286 283 281 283 278 278 278 277 281 288 290 291 291 292 293 293 293 294 293 293 293 292 293 288 287 293 293 292 288 289
290 289 291 292 292 293 292 289 287 285 286 286 286 290 289 287 286 287 290 290 292 290 287 287 281 280 285 281 279 285 282 285 288 290 291 292 292 292 293 294 294 293 292 292 292 293 293 294 292 291 290 293 294 294
289 292 291 292 293 291 288 287 287 286 284 288 287 288 290 290 289 288 290 291 290 289 288 285 287 281 280 278 281 285 287 289 291 291 292 293 293 293 294 294 293 293 292 293 293 293 293 292 292 292 293 293 293 293
291 293 292 292 292 289 285 285 287 284 286 289 290 290 290 290 290 291 292 292 292 293 290 288 283 282 282 286 286 287 288 290 289 291 293 293 294 294 294 293 293 294 294 293 293 293 293 293 293 293 293 293 292 293
292 291 292 292 293 288 286 286 290 288 285 288 290 289 289 288 289 291 292 292 292 291 287 284 284 287 288 289 291 291 292 293 292 291 291 294 295 294 294 294 295 295 294 294 294 289 293 293 293 293 293 292 292 292
289 291 292 293 291 291 288 287 288 286 289 288 290 289 287 289 289 290 290 293 291 288 286 289 290 291 292 292 293 294 294 294 293 294 294 293 296 295 295 295 296 295 294 294 293 293 291 293 294 294 294 294 294 294
287 292 290 292 288 288 287 288 287 289 288 289 290 290 286 286 288 289 292 290 288 290 291 291 292 293 293 293 293 295 294 294 294 294 288 290 293 293 294 295 294 294 294 294 293 292 292 293 293 293 292 291 290 292
291 290 287 287 285 285 284 290 286 287 285 286 289 285 286 287 289 291 287 289 290 293 293 293 293 293 293 292 293 293 293 293 294 294 294 294 294 294 293 293 293 292 291 291 293 292 291 289 290 289 288 289 287 287
292 286 284 284 285 281 286 284 287 285 286 285 284 282 284 286 289 287 284 288 291 293 292 292 293 292 292 292 292 292 292 293 293 294 293 291 290 291 292 292 292 292 292 291 290 289 288 288 287 287 286 285 285 285
284 281 283 280 283 282 280 281 280 282 280 281 281 282 284 287 284 283 284 287 290 291 291 292 292 292 291 291 290 290 291 292 290 289 292 292 291 291 290 291 289 288 290 288 287 287 286 286 286 286 286 285 284 284
279 280 280 280 281 281 281 279 279 280 280 280 281 283 285 284 282 280 284 287 288 288 289 290 290 290 289 291 290 290 290 292 291 289 291 291 290 287 285 284 284 285 289 287 285 284 284 285 285 284 284 284 283 283
278 279 282 286 284 283 282 283 282 282 280 280 281 281 282 279 279 282 287 289 289 289 290 290 290 290 289 290 290 291 291 291 289 289 290 290 290 289 287 285 284 285 286 285 285 284 283 282 282 282 282 283 284 283
281 281 280 281 281 282 280 280 280 279 280 282 283 280 280 280 280 286 288 290 291 291 290 290 290 291 290 290 290 290 289 288 287 288 289 289 289 289 287 287 285 283 285 285 284 284 283 282 281 281 281 281 281 282
281 283 282 276 279 280 279 279 280 281 283 283 283 281 281 284 286 288 288 289 290 289 287 287 286 288 288 288 288 287 286 285 283 281 281 281 283 284 285 284 283 283 283 283 283 282 281 280 280 280 279 280 280 281
281 283 280 277 277 277 280 282 281 283 283 283 285 286 286 285 284 285 286 286 285 283 284 285 286 286 284 283 283 284 286 287 286 283 281 281 281 283 283 282 283 283 283 282 281 281 280 280 280 280 279 279 279 279
282 283 280 279 278 281 281 282 283 283 282 282 283 284 283 283 284 284 284 284 285 286 286 285 285 285 283 283 283 282 283 287 286 284 284 283 283 283 283 283 283 282 281 280 279 278 277 278 278 277 277 276 276 277
282 279 279 277 279 281 282 281 281 281 281 283 282 283 283 283 282 284 285 285 286 285 285 285 283 283 285 285 285 286 284 284 284 284 283 283 283 282 281 281 281 280 278 277 277 276 276 276 276 275 275 275 275 275
279 280 278 279 279 279 280 280 279 279 280 280 281 280 281 280 279 283 285 286 286 286 285 283 284 285 285 285 284 284 284 284 283 281 281 279 278 277 279 279 279 278 277 276 276 275 274 274 274 274 274 273 273 273
Wind_Speed
21 21 23 22 23 21 23 22 23 22 22 23 23 20 23 23 21 13 9 11 10 4 15 18 23 18 14 10 9 4 8 8 11 8 9 13 13 17 17 11 13 10 10 8 5 5 8 6 8 11 4 1 11 14
22 22 22 22 22 23 21 22 23 23 22 23 22 18 24 22 22 17 9 8 10 8 7 11 18 20 20 21 10 3 5 5 4 8 6 10 13 14 19 17 18 12 11 8 5 6 2 2 4 3 1 8 11 14
21 21 21 21 21 23 24 23 24 23 22 23 22 19 23 20 21 16 9 7 7 6 9 12 17 21 17 15 9 4 4 5 4 8 9 7 13 16 15 19 18 21 5 8 6 3 5 2 2 2 7 10 15 16
21 20 20 21 22 22 23 24 23 22 22 23 21 19 22 21 21 19 7 6 8 1 5 8 5 6 6 8 9 10 9 9 3 3 6 6 9 6 14 14 19 12 15 12 5 7 9 6 6 10 14 16 18 17
19 20 20 22 24 23 22 22 21 20 21 21 19 19 21 21 20 13 10 6 8 5 3 4 7 4 4 5 9 10 10 12 4 4 5 7 4 5 1 2 10 6 9 10 9 13 3 12 11 13 16 16 17 18
20 21 22 23 22 21 22 21 19 19 18 19 21 19 20 21 17 6 4 6 10 7 3 5 2 4 2 5 7 5 5 2 2 2 2 3 5 7 7 7 5 3 5 4 6 13 14 16 13 15 15 13 13 15
21 22 22 23 24 19 19 19 16 17 19 20 19 20 21 22 11 4 4 1 7 6 2 4 4 3 2 2 2 2 3 1 2 1 1 3 3 1 4 3 6 6 7 16 17 20 17 14 11 14 15 15 15 13
22 22 24 20 21 23 18 17 15 18 18 18 19 20 21 25 14 8 7 9 5 2 3 4 1 3 1 2 1 1 2 4 2 0 0 3 3 3 5 5 8 10 12 12 7 7 16 17 16 16 12 13 14 12
21 20 21 21 14 12 14 14 15 19 17 18 19 23 8 4 3 3 4 10 2 2 3 3 3 1 3 2 3 3 2 3 2 3 3 1 3 5 7 9 10 7 8 10 12 16 17 15 15 16 16 12 12 10
18 19 15 11 12 13 13 15 15 17 17 18 10 3 3 3 5 9 3 2 2 3 4 4 1 2 3 3 1 4 3 2 0 4 3 3 5 5 3 2 5 4 11 10 13 13 13 13 12 11 10 8 7 8
16 13 14 13 12 12 13 14 14 15 11 2 2 3 2 2 1 1 3 4 4 4 4 2 4 4 3 2 3 1 1 1 1 3 2 3 6 8 9 10 6 3 5 12 13 10 9 10 10 8 6 5 5 5
15 13 11 11 9 9 12 15 12 5 2 7 9 7 2 2 2 4 2 3 5 3 5 4 4 1 4 3 3 2 0 1 3 1 2 4 5 6 8 10 12 11 9 11 11 10 9 9 7 5 3 3 3 3
13 11 11 12 12 13 14 13 11 8 10 4 4 4 3 2 4 4 5 3 4 5 5 6 6 2 4 1 2 2 2 3 1 3 4 6 9 7 8 9 10 11 12 13 12 11 10 8 6 4 2 1 2 5
10 10 11 13 13 16 14 15 13 6 4 4 4 5 4 4 5 4 5 2 3 3 8 7 4 1 1 1 1 2 2 3 3 4 3 7 9 9 9 7 9 10 9 9 8 6 5 4 2 1 3 3 5 7
11 12 14 15 9 11 18 17 13 5 3 4 3 4 5 1 1 2 0 2 2 6 8 5 4 2 2 3 1 3 3 2 2 5 10 10 11 10 9 7 8 8 6 6 5 4 3 2 3 4 5 6 7 7
11 12 6 3 11 16 17 4 5 2 3 3 5 4 1 3 3 2 4 3 4 7 3 0 2 3 3 2 2 1 1 3 5 6 10 11 10 8 8 6 5 5 4 2 2 1 1 2 3 5 4 5 4 6
8 4 3 9 15 17 1 1 2 4 4 4 3 2 2 3 2 3 3 4 5 5 2 1 2 3 3 1 2 1 3 6 8 10 9 10 9 7 6 5 4 3 2 1 2 3 4 4 0 6 8 10 8 10
8 7 8 13 12 2 0 3 3 4 5 2 2 1 2 2 1 3 2 6 4 2 0 2 3 2 2 2 3 3 4 6 7 8 8 8 7 5 4 3 2 2 4 5 5 5 6 6 8 8 10 10 10 11
9 8 12 15 7 3 2 2 2 2 2 1 0 0 1 2 2 1 6 5 2 2 4 1 2 2 2 3 7 7 6 7 8 6 6 5 4 3 4 4 4 5 6 7 7 6 6 8 8 8 8 8 9 10
14 15 15 12 6 2 3 2 2 1 2 1 1 2 2 3 2 6 7 4 1 1 3 3 3 3 3 5 4 6 6 6 7 6 5 4 3 5 5 4 4 5 5 7 8 6 8 8 8 8 8 9 10 11
5 3 3 4 2 1 2 2 2 2 1 2 2 3 4 3 6 8 4 1 3 3 3 4 4 5 5 5 4 5 5 4 4 2 2 2 2 3 4 4 5 5 6 7 7 8 7 9 9 9 9 9 9 10
3 4 1 2 2 1 1 3 2 1 1 2 1 2 4 3 3 3 1 3 3 3 3 4 4 5 5 5 4 4 4 2 2 1 2 2 4 4 5 5 5 6 7 7 8 9 9 9 9 9 10 8 11 11
3 1 1 2 1 2 2 2 1 3 2 2 1 3 3 2 2 1 3 3 2 2 2 3 4 4 4 3 3 3 2 1 2 3 3 4 4 4 4 5 5 7 8 8 8 8 9 8 8 7 9 9 10 9
1 2 2 1 1 2 1 2 2 2 2 2 2 3 3 2 1 2 3 2 2 1 2 3 2 3 2 2 1 1 2 1 1 1 1 3 4 5 5 6 6 6 7 7 8 8 7 7 10 9 9 10 9 9
3 2 2 3 1 2 2 2 2 1 3 2 3 2 2 1 2 2 2 2 1 1 1 1 1 0 1 1 2 4 4 3 3 4 3 3 4 5 6 6 7 7 6 6 7 7 8 9 9 9 10 9 11 13
2 3 2 1 1 1 1 3 2 3 2 3 3 2 0 1 2 3 2 2 3 3 2 1 2 2 3 2 2 2 3 3 3 4 4 4 6 7 8 8 7 7 3 4 8 9 10 10 10 12 11 11 13 12
3 3 2 0 1 2 3 2 2 2 3 2 3 2 1 3 3 2 1 2 2 3 3 4 3 3 3 3 3 3 3 4 4 6 7 7 6 6 5 6 8 7 9 9 7 8 11 11 11 11 11 10 9 9
2 1 3 1 2 3 3 2 2 2 2 1 2 2 2 2 3 2 3 3 3 3 4 4 5 4 4 3 3 4 4 6 7 7 6 4 3 3 2 5 7 8 8 6 7 7 8 9 10 11 11 10 9 9
2 2 2 3 3 4 4 3 2 2 2 1 1 2 2 3 3 2 3 3 3 2 3 3 4 4 3 4 4 5 6 6 7 8 9 6 6 3 6 7 7 6 6 6 7 6 9 8 8 7 8 8 7 7
2 2 3 3 3 3 3 4 2 2 2 2 2 2 3 3 3 4 3 3 4 4 3 3 2 4 5 5 6 6 3 4 3 4 6 7 7 6 6 7 7 6 6 7 7 7 7 6 6 6 7 6 7 7
2 1 3 3 3 2 3 3 2 1 1 2 2 3 3 3 3 3 4 3 3 3 2 4 4 3 4 5 5 7 6 2 4 5 4 5 5 5 5 5 5 5 5 6 6 6 7 6 7 7 9 10 11 10
2 3 2 4 3 2 1 0 0 1 2 1 3 2 2 2 3 2 2 1 1 3 4 4 5 6 5 4 3 3 3 5 4 5 5 4 4 5 5 5 5 4 5 5 6 6 7 8 8 9 9 11 11 11
3 2 2 3 3 3 1 1 2 2 2 2 3 2 2 2 3 2 0 1 2 3 4 5 5 5 5 4 3 2 3 3 5 6 6 6 6 5 4 4 4 4 5 6 6 7 9 11 9 10 11 11 11 11
Wind_Direction
285 284 284 289 292 292 292 283 287 287 290 288 287 294 290 291 296 304 284 213 206 250 262 267 264 259 258 239 295 307 316 226 184 214 215 213 212 210 219 234 267 197 183 182 232 251 192 155 141 201 31 296 173 180
284 287 287 290 289 287 290 288 284 285 287 288 287 293 290 291 299 301 282 219 205 235 264 293 275 268 266 272 266 233 283 307 244 212 228 236 223 201 216 234 233 243 246 217 235 178 57 81 23 12 30 139 151 143
288 288 288 287 283 287 294 286 284 281 284 286 286 277 285 294 297 294 288 235 193 249 264 243 250 260 229 220 192 242 228 245 257 340 259 250 227 218 204 219 214 215 200 232 192 138 102 81 122 194 125 135 133 133
288 287 285 284 288 289 293 287 280 280 283 287 283 285 286 293 297 297 292 259 209 191 265 265 199 231 212 193 208 229 262 264 296 297 272 238 253 235 224 222 213 207 173 176 140 138 119 103 113 121 116 117 120 120
281 282 283 284 284 287 292 288 282 280 284 289 284 282 286 292 294 298 279 239 214 185 285 310 314 222 236 224 266 261 263 236 181 231 230 216 290 244 30 241 223 182 191 199 210 162 144 131 126 121 117 114 111 113
282 285 285 291 291 288 289 284 280 282 297 286 280 285 288 290 292 286 269 213 202 178 239 256 84 209 252 284 289 282 301 22 170 229 229 269 130 267 181 195 52 228 243 219 137 144 120 124 115 113 106 98 95 103
289 289 290 289 290 282 286 281 287 295 286 276 284 286 286 289 281 224 252 21 315 124 228 246 233 138 302 272 238 250 190 275 278 248 256 285 92 332 1 124 80 68 94 111 121 119 116 132 120 110 113 118 119 113
294 292 293 289 287 284 273 279 291 290 286 288 289 294 293 291 274 252 226 224 240 176 243 266 237 235 35 262 283 24 241 189 340 334 315 3 25 29 85 63 88 93 87 90 115 109 119 120 122 118 117 124 132 130
295 294 294 291 284 284 274 285 288 305 295 295 299 297 283 210 224 237 195 188 126 240 229 229 254 335 164 20 307 207 265 42 265 55 53 278 25 42 100 76 51 53 71 80 82 101 119 120 123 131 145 147 130 131
293 298 297 286 278 279 280 284 288 292 299 306 291 248 236 207 255 147 125 123 160 226 225 254 229 147 211 159 112 316 20 34 11 68 190 83 68 103 106 6 316 40 114 131 116 114 120 125 133 135 135 127 131 141
301 295 288 283 274 276 280 286 290 304 308 220 236 246 275 94 46 217 178 190 173 209 202 206 230 156 168 207 113 220 100 268 251 49 346 79 81 79 120 132 141 59 59 63 70 92 94 126 130 133 123 110 114 132
304 285 292 296 291 283 282 286 290 291 265 312 309 283 301 224 213 247 150 146 217 206 167 189 149 145 135 235 165 172 274 265 69 14 70 82 106 89 85 80 78 96 99 74 67 78 80 81 79 95 132 148 159 165
291 280 283 290 290 286 292 286 279 288 304 273 224 247 219 132 215 238 160 189 214 165 175 165 148 157 158 209 74 116 91 52 10 32 64 96 122 109 100 98 87 84 84 84 81 76 76 77 73 71 92 168 233 238
282 283 283 286 285 300 305 281 260 278 232 244 224 226 237 171 231 214 226 57 80 171 158 165 114 114 103 108 78 104 76 172 151 130 99 142 140 125 115 108 111 101 96 92 87 83 75 63 48 312 262 252 239 253
281 284 288 289 287 309 317 289 238 211 237 248 245 242 222 284 279 321 259 179 111 160 150 138 112 130 75 105 56 127 152 123 38 100 132 145 146 143 138 134 122 104 92 87 85 71 51 6 311 293 283 262 251 255
288 292 268 342 327 313 309 31 130 132 232 235 238 250 221 211 240 216 204 141 147 162 154 153 117 117 98 111 127 128 152 74 106 126 135 140 145 143 140 133 116 104 100 78 38 344 266 173 231 269 299 276 259 241
288 240 248 321 313 309 238 89 155 201 245 235 236 258 280 285 271 185 191 138 147 192 139 113 108 54 109 121 118 60 54 104 123 135 140 140 142 144 147 143 147 160 200 291 300 293 291 283 223 264 273 277 255 262
263 285 294 306 319 108 191 207 214 217 220 223 229 21 293 312 163 159 133 143 163 147 203 56 134 156 92 86 109 113 115 106 116 130 132 131 133 149 156 157 177 250 276 276 282 281 274 263 261 264 271 278 279 271
291 288 288 299 301 278 255 209 226 242 78 79 40 225 258 100 82 120 136 120 76 94 130 116 67 58 76 76 123 125 133 137 134 136 137 148 151 176 188 215 249 266 272 271 267 269 273 274 273 277 277 275 272 276
295 290 279 273 263 234 220 182 237 269 97 26 328 51 69 49 74 145 126 125 181 111 53 38 35 51 70 112 128 127 121 123 134 142 158 186 203 215 241 249 271 283 284 277 269 263 272 272 269 271 271 277 283 280
303 268 250 208 252 265 321 299 112 42 9 50 24 37 67 97 127 147 121 318 53 30 73 63 76 75 79 98 101 105 113 139 133 138 137 175 187 262 284 285 284 277 276 282 284 284 269 275 287 290 291 290 288 287
255 232 296 31 263 243 12 27 21 60 6 54 38 53 84 86 122 82 319 71 51 53 52 110 117 118 114 106 108 85 81 118 82 122 185 201 277 280 285 294 292 282 285 288 290 292 293 296 300 302 303 300 295 290
262 149 214 212 108 341 69 262 349 21 94 76 116 87 76 72 50 285 76 54 77 74 106 113 113 83 90 79 83 73 58 321 279 287 298 293 294 290 283 289 294 293 292 294 304 299 294 312 307 309 307 299 298 295
332 352 31 98 42 90 331 53 57 46 45 43 63 85 73 67 343 60 93 107 84 134 176 124 148 135 137 148 121 60 20 324 294 290 334 303 298 299 309 302 302 301 301 310 304 298 300 304 297 292 291 289 294 294
209 47 319 67 51 113 89 73 63 108 90 79 91 96 96 272 95 74 86 71 3 69 85 114 122 5 292 79 99 99 59 16 350 328 333 319 306 298 299 308 308 298 287 291 302 313 301 293 289 288 293 292 290 291
82 13 11 52 94 157 127 110 108 104 99 85 71 69 309 89 88 91 65 34 35 28 45 85 130 131 111 74 94 83 47 6 313 297 323 320 311 302 300 301 306 309 36 331 303 297 301 306 305 306 305 306 308 306
133 112 92 352 348 110 102 75 91 84 88 119 145 127 122 106 101 99 83 47 60 54 48 34 34 50 67 77 73 42 3 350 336 315 308 301 300 297 305 304 310 318 321 311 307 307 311 311 309 308 307 307 307 316
82 100 119 81 70 16 111 95 84 74 87 94 157 80 79 60 99 80 66 79 74 73 74 61 47 50 54 28 356 341 344 338 319 311 297 283 283 335 330 329 316 315 305 310 316 312 310 313 313 314 316 322 326 329
75 57 104 62 57 54 43 33 65 63 345 289 84 110 102 54 31 45 50 23 16 71 84 67 44 9 351 344 349 339 319 321 324 324 326 324 323 333 346 323 319 320 320 315 318 325 332 325 329 331 329 326 328 328
78 357 96 77 59 55 41 351 45 25 15 1 343 136 115 88 48 15 16 38 72 83 81 59 354 348 344 342 337 323 335 324 321 321 321 320 327 327 324 324 324 327 331 336 338 337 345 345 350 1 4 5 4 359
4 69 83 71 91 61 39 6 0 66 1 16 4 31 75 97 118 59 68 76 88 82 32 4 2 6 340 325 321 325 331 92 8 341 333 321 319 320 330 336 346 347 353 358 4 12 7 17 21 23 25 25 21 21
44 45 111 117 121 101 40 187 73 68 16 32 50 39 135 171 90 89 25 312 272 11 13 346 342 338 324 308 294 303 320 322 337 342 339 345 358 360 353 358 6 14 25 34 35 31 30 36 36 30 29 30 27 27
99 105 105 129 144 160 120 204 66 107 72 64 55 44 42 15 80 88 351 330 333 333 345 331 315 313 325 335 4 353 339 15 42 47 51 46 32 12 15 25 32 41 51 53 49 46 45 47 44 40 39 35 34 31